KI7JYE Weather Reports


time (UTC)temp
C
wind
direction
speed
KPH
gust
KPH
rain 1hr
cm
rain 24hr
cm
rain mn
cm
humidity
%
barometer
mb
20260505124754 11 213 1.6 1.6 0.00 0.00 0.00 92 1014.0
20260505124251 11 214 1.6 1.6 0.00 0.00 0.00 92 1014.2
20260505123747 11 200 1.6 3.2 0.00 0.00 0.00 92 1013.8
20260505123244 11 215 0.0 1.6 0.00 0.00 0.00 92 1013.9
20260505122740 11 199 0.0 0.0 0.00 0.00 0.00 92 1013.9
20260505122237 11 224 0.0 0.0 0.00 0.00 0.00 92 1013.9
20260505121734 11 225 0.0 0.0 0.00 0.00 0.00 93 1014.0
20260505121231 11 215 0.0 0.0 0.00 0.00 0.00 93 1014.0
20260505120727 10 219 0.0 0.0 0.00 0.00 0.00 94 1013.8
20260505120223 10 229 0.0 0.0 0.00 0.00 0.00 94 1013.9
20260505115722 10 224 0.0 0.0 0.00 0.00 0.00 95 1013.8
20260505115220 10 224 0.0 0.0 0.00 0.00 0.00 95 1014.0
20260505114717 10 224 0.0 0.0 0.00 0.00 0.00 96 1014.0
20260505114213 10 230 0.0 0.0 0.00 0.00 0.00 96 1013.9
20260505113709 10 225 0.0 0.0 0.00 0.00 0.00 97 1013.9
20260505113206 10 224 0.0 0.0 0.00 0.00 0.00 97 1013.7
20260505112703 10 236 0.0 0.0 0.00 0.00 0.00 97 1013.9
20260505112201 10 236 0.0 0.0 0.00 0.00 0.00 97 1013.9
20260505111700 10 234 0.0 0.0 0.00 0.00 0.00 97 1013.7
20260505111156 10 234 0.0 0.0 0.00 0.00 0.00 97 1013.7
20260505110652 9 234 0.0 0.0 0.00 0.00 0.00 97 1013.8
20260505110150 9 232 0.0 0.0 0.00 0.00 0.00 97 1013.9
20260505102125 8 237 0.0 0.0 0.00 0.00 0.00 97 1013.2
20260505101624 8 234 0.0 0.0 0.00 0.00 0.00 97 1013.3
20260505101120 8 235 0.0 0.0 0.00 0.00 0.00 96 1013.4
20260505100616 8 235 0.0 0.0 0.00 0.00 0.00 96 1013.3
20260505100113 8 237 0.0 0.0 0.00 0.00 0.00 96 1013.4
20260505095609 8 236 0.0 0.0 0.00 0.00 0.00 96 1013.5
20260505095106 8 238 0.0 0.0 0.00 0.00 0.00 96 1013.2
20260505094603 9 236 0.0 0.0 0.00 0.00 0.00 96 1013.2
20260505094059 9 238 0.0 0.0 0.00 0.00 0.00 96 1013.4
20260505093555 9 238 0.0 0.0 0.00 0.00 0.00 96 1013.3
20260505093053 9 235 0.0 0.0 0.00 0.00 0.00 95 1013.2
20260505092550 9 232 0.0 0.0 0.00 0.00 0.00 95 1013.1
20260505092048 10 224 0.0 0.0 0.00 0.00 0.00 95 1013.3
20260505091545 10 222 0.0 0.0 0.00 0.00 0.00 95 1013.1
20260505091043 10 227 0.0 0.0 0.00 0.00 0.00 95 1013.1
20260505090541 10 231 0.0 0.0 0.00 0.00 0.00 94 1013.0
20260505090038 10 224 0.0 0.0 0.00 0.00 0.00 94 1012.9
20260505085536 10 224 0.0 0.0 0.00 0.00 0.00 94 1012.8
20260505085034 10 224 0.0 0.0 0.00 0.00 0.00 94 1012.9
20260505084532 10 214 0.0 0.0 0.00 0.00 0.00 94 1013.1
20260505084030 10 220 0.0 0.0 0.00 0.00 0.00 94 1012.9
20260505083527 10 218 0.0 0.0 0.00 0.00 0.00 94 1012.9
20260505083023 10 226 0.0 0.0 0.00 0.00 0.00 94 1013.1
20260505082519 10 227 0.0 0.0 0.00 0.00 0.00 94 1013.1
20260505082016 10 227 0.0 0.0 0.00 0.00 0.00 93 1013.1
20260505081512 10 227 0.0 0.0 0.00 0.00 0.00 92 1012.7
20260505081009 10 223 0.0 0.0 0.00 0.00 0.00 92 1012.8
20260505080506 11 222 0.0 0.0 0.00 0.00 0.00 91 1013.0
20260505080002 11 230 0.0 0.0 0.00 0.00 0.00 91 1012.9
20260505075458 11 237 1.6 1.6 0.00 0.00 0.00 90 1012.8
20260505074955 11 234 1.6 1.6 0.00 0.00 0.00 90 1012.7
20260505074453 11 229 0.0 0.0 0.00 0.00 0.00 90 1012.6
20260505073950 11 233 0.0 1.6 0.00 0.00 0.00 90 1012.7
20260505073447 11 227 0.0 0.0 0.00 0.00 0.00 90 1012.6
20260505072944 11 253 4.8 4.8 0.00 0.00 0.00 90 1012.5
20260505072440 11 229 1.6 3.2 0.00 0.00 0.00 90 1012.3
20260505071937 11 225 0.0 0.0 0.00 0.00 0.00 90 1012.4
20260505071433 11 231 0.0 0.0 0.00 0.00 0.00 89 1012.4
20260505070931 11 242 1.6 3.2 0.00 0.00 0.00 90 1012.4
20260505070427 11 228 0.0 0.0 0.00 0.00 0.00 89 1012.5
20260505065923 11 255 0.0 0.0 0.00 0.00 0.00 89 1012.4
20260505065420 11 228 0.0 0.0 0.00 0.00 0.00 88 1012.2
20260505064916 11 230 0.0 0.0 0.00 0.00 0.00 88 1012.4
20260505064414 12 231 0.0 1.6 0.00 0.00 0.00 87 1012.2
20260505063912 12 222 0.0 0.0 0.00 0.00 0.00 87 1012.1
20260505063408 12 222 1.6 1.6 0.00 0.00 0.00 87 1012.0
20260505062904 12 233 0.0 0.0 0.00 0.00 0.00 87 1011.9
20260505062402 12 226 1.6 1.6 0.00 0.00 0.00 87 1011.9
20260505061858 12 224 0.0 0.0 0.00 0.00 0.00 86 1012.1
20260505061357 12 219 0.0 0.0 0.00 0.00 0.00 86 1012.0
20260505060854 12 231 4.8 4.8 0.00 0.00 0.00 86 1011.8
20260505060351 12 128 3.2 9.7 0.00 0.00 0.00 85 1011.9
20260505055847 12 230 1.6 3.2 0.00 0.00 0.00 85 1011.9
20260505055343 12 205 0.0 1.6 0.00 0.00 0.00 85 1011.8
20260505054840 12 223 0.0 0.0 0.00 0.00 0.00 85 1011.7
20260505054337 12 199 3.2 4.8 0.00 0.00 0.00 85 1011.6
20260505053836 12 193 0.0 1.6 0.00 0.00 0.00 84 1011.7
20260505053332 13 203 0.0 0.0 0.00 0.00 0.00 84 1011.7
20260505052829 13 192 3.2 3.2 0.00 0.00 0.00 84 1011.7
20260505052326 13 202 3.2 3.2 0.00 0.00 0.00 84 1011.7
20260505051823 13 181 0.0 1.6 0.00 0.00 0.00 83 1011.7
20260505051320 13 192 3.2 3.2 0.00 0.00 0.00 83 1011.6
20260505050818 13 218 0.0 1.6 0.00 0.00 0.00 83 1011.5
20260505050317 13 172 3.2 3.2 0.00 0.00 0.00 82 1011.4
20260505041746 15 233 1.6 1.6 0.00 0.00 0.00 78 1010.8
20260505041243 15 226 1.6 3.2 0.00 0.00 0.00 79 1010.6
20260505040741 15 218 0.0 0.0 0.00 0.00 0.00 78 1010.6
20260505040238 15 234 0.0 0.0 0.00 0.00 0.00 77 1010.2
20260505035735 15 219 0.0 0.0 0.00 0.00 0.00 77 1010.2
20260505035231 16 196 1.6 1.6 0.00 0.00 0.00 76 1010.4
20260505034728 16 212 0.0 0.0 0.00 0.00 0.00 76 1010.3
20260505034225 16 223 1.6 1.6 0.00 0.00 0.00 75 1010.2
20260505033721 16 223 1.6 1.6 0.00 0.00 0.00 74 1010.1
20260505033219 16 222 0.0 0.0 0.00 0.00 0.00 74 1010.0
20260505032717 17 224 0.0 0.0 0.00 0.00 0.00 73 1010.1
20260505032213 17 228 0.0 0.0 0.00 0.00 0.00 73 1010.0
20260505031711 17 231 0.0 1.6 0.00 0.00 0.00 72 1009.7
20260505031207 17 227 1.6 1.6 0.00 0.00 0.00 71 1009.9
20260505030703 18 233 0.0 0.0 0.00 0.00 0.00 70 1009.7
20260505030159 18 230 0.0 0.0 0.00 0.00 0.00 69 1009.5
20260505025655 18 222 0.0 0.0 0.00 0.00 0.00 69 1009.5
20260505025154 19 240 0.0 0.0 0.00 0.00 0.00 68 1009.6
20260505024651 19 224 1.6 1.6 0.00 0.00 0.00 67 1009.6
20260505024148 20 241 3.2 4.8 0.00 0.00 0.00 66 1009.4
20260505023646 20 258 3.2 4.8 0.00 0.00 0.00 66 1009.4
20260505023143 21 234 6.4 8.0 0.00 0.00 0.00 64 1009.4
20260505022640 21 225 1.6 3.2 0.00 0.00 0.00 63 1009.3
20260505022137 22 231 0.0 1.6 0.00 0.00 0.00 62 1009.2
20260505021634 22 236 0.0 1.6 0.00 0.00 0.00 61 1009.2
20260505021131 22 232 1.6 1.6 0.00 0.00 0.00 61 1009.2
20260505020626 22 213 1.6 1.6 0.00 0.00 0.00 61 1009.2
20260505020123 22 244 1.6 1.6 0.00 0.00 0.00 62 1009.2
20260505015620 22 285 0.0 1.6 0.00 0.00 0.00 60 1009.2
20260505015116 22 229 1.6 3.2 0.00 0.00 0.00 61 1009.3
20260505014613 22 289 4.8 8.0 0.00 0.00 0.00 59 1009.3
20260505014110 22 247 1.6 3.2 0.00 0.00 0.00 61 1009.1
20260505013608 23 225 4.8 4.8 0.00 0.00 0.00 60 1009.4
20260505013105 23 253 1.6 3.2 0.00 0.00 0.00 60 1009.1
20260505012603 23 230 1.6 3.2 0.00 0.00 0.00 60 1009.2
20260505012059 24 234 1.6 3.2 0.00 0.00 0.00 59 1009.1
20260505011555 23 233 3.2 4.8 0.00 0.00 0.00 60 1009.1
20260505011053 23 232 4.8 4.8 0.00 0.00 0.00 61 1009.5
20260505010548 23 246 1.6 1.6 0.00 0.00 0.00 61 1009.4
20260505010045 24 175 8.0 9.7 0.00 0.00 0.00 59 1009.5
20260505005541 25 241 1.6 1.6 0.00 0.00 0.00 56 1009.5
20260505005039 24 236 1.6 1.6 0.00 0.00 0.00 58 1009.3
20260505004535 24 222 0.0 1.6 0.00 0.00 0.00 58 1009.6
20260505004032 24 176 8.0 11.3 0.00 0.00 0.00 57 1009.3
20260505003529 25 234 1.6 1.6 0.00 0.00 0.00 58 1009.5
20260505003027 25 223 0.0 1.6 0.00 0.00 0.00 57 1009.2
20260505002527 23 227 3.2 4.8 0.00 0.00 0.00 59 1009.4
20260505002026 24 166 1.6 3.2 0.00 0.00 0.00 58 1009.6
20260505001523 24 236 3.2 3.2 0.00 0.00 0.00 59 1009.4
20260505001020 25 234 3.2 3.2 0.00 0.00 0.00 59 1009.5
20260505000517 25 227 1.6 3.2 0.00 0.00 0.00 58 1009.6
20260505000015 25 221 4.8 4.8 0.00 0.00 0.00 58 1009.6
20260504235512 25 259 0.0 0.0 0.00 0.00 0.00 56 1009.8
20260504235008 24 232 1.6 1.6 0.00 0.00 0.00 58 1009.7
20260504234505 25 218 1.6 3.2 0.00 0.00 0.00 57 1009.7
20260504234002 25 212 1.6 3.2 0.00 0.00 0.00 58 1009.9
20260504233457 24 230 3.2 4.8 0.00 0.00 0.00 58 1009.8
20260504232954 25 227 3.2 4.8 0.00 0.00 0.00 56 1010.0
20260504232451 24 192 3.2 4.8 0.00 0.00 0.00 59 1010.0
20260504231949 23 253 1.6 1.6 0.00 0.00 0.00 58 1009.9
20260504231445 23 221 0.0 0.0 0.00 0.00 0.00 59 1010.0
20260504230941 23 220 3.2 4.8 0.00 0.00 0.00 60 1010.0
20260504230438 23 220 3.2 3.2 0.00 0.00 0.00 59 1010.1
20260504225937 23 238 3.2 3.2 0.00 0.00 0.00 61 1010.1
20260504225434 24 254 4.8 4.8 0.00 0.00 0.00 58 1010.3
20260504224931 23 220 1.6 3.2 0.00 0.00 0.00 59 1010.2
20260504224427 23 234 3.2 3.2 0.00 0.00 0.00 59 1010.5
20260504223925 23 238 0.0 0.0 0.00 0.00 0.00 58 1010.2
20260504223420 23 259 4.8 4.8 0.00 0.00 0.00 59 1010.6
20260504222916 23 263 1.6 1.6 0.00 0.00 0.00 59 1010.4
20260504222414 22 234 1.6 1.6 0.00 0.00 0.00 62 1010.6
20260504221912 23 216 3.2 3.2 0.00 0.00 0.00 60 1010.6
20260504221408 23 229 1.6 3.2 0.00 0.00 0.00 59 1010.5
20260504220905 23 241 1.6 1.6 0.00 0.00 0.00 61 1010.6
20260504220402 22 234 3.2 4.8 0.00 0.00 0.00 60 1011.0
20260504215859 23 232 1.6 3.2 0.00 0.00 0.00 58 1010.8
20260504215355 23 232 4.8 8.0 0.00 0.00 0.00 59 1010.8
20260504214852 23 214 0.0 0.0 0.00 0.00 0.00 61 1010.8
20260504214349 23 226 0.0 0.0 0.00 0.00 0.00 61 1011.0
20260504213845 22 232 0.0 0.0 0.00 0.00 0.00 62 1011.1
20260504213341 20 106 3.2 9.7 0.00 0.00 0.00 67 1011.1
20260504212839 21 218 4.8 4.8 0.00 0.00 0.00 64 1011.2
20260504212334 22 198 6.4 9.7 0.00 0.00 0.00 61 1011.1
20260504211833 22 233 0.0 0.0 0.00 0.00 0.00 61 1011.4
20260504211328 21 232 1.6 1.6 0.00 0.00 0.00 62 1011.3
20260504210826 21 216 1.6 3.2 0.00 0.00 0.00 65 1011.7
20260504210323 20 226 0.0 0.0 0.00 0.00 0.00 65 1011.5
20260504205820 21 228 3.2 4.8 0.00 0.00 0.00 64 1011.7
20260504205318 20 184 3.2 3.2 0.00 0.00 0.00 65 1011.8
20260504204816 20 161 4.8 8.0 0.00 0.00 0.00 69 1011.9
20260504204314 19 183 3.2 4.8 0.00 0.00 0.00 69 1011.9
20260504203813 20 263 3.2 3.2 0.00 0.00 0.00 67 1011.8
20260504203309 19 230 4.8 9.7 0.00 0.00 0.00 67 1012.1
20260504202804 19 248 3.2 3.2 0.00 0.00 0.00 67 1012.0
20260504202304 18 274 0.0 1.6 0.00 0.00 0.00 68 1012.0
20260504201759 20 202 4.8 8.0 0.00 0.00 0.00 66 1012.4
20260504201256 19 266 6.4 8.0 0.00 0.00 0.00 67 1012.3
20260504200754 19 230 4.8 4.8 0.00 0.00 0.00 67 1012.3
20260504200249 20 188 4.8 4.8 0.00 0.00 0.00 67 1012.4
20260504195746 18 222 4.8 4.8 0.00 0.00 0.00 69 1012.3
20260504195242 17 237 0.0 0.0 0.00 0.00 0.00 71 1012.3
20260504194739 17 246 3.2 3.2 0.00 0.00 0.00 73 1012.3
20260504194235 18 167 3.2 4.8 0.00 0.00 0.00 71 1012.2
20260504193732 17 236 4.8 4.8 0.00 0.00 0.00 70 1012.3
20260504193229 18 229 0.0 0.0 0.00 0.00 0.00 69 1012.5
20260504192728 17 220 3.2 3.2 0.00 0.00 0.00 74 1012.6
20260504192225 17 150 6.4 8.0 0.00 0.00 0.00 73 1012.4
20260504191724 17 172 0.0 0.0 0.00 0.00 0.00 71 1012.6
20260504191220 17 235 1.6 3.2 0.00 0.00 0.00 72 1012.8
20260504190715 17 243 4.8 4.8 0.00 0.00 0.00 71 1012.7
20260504190212 16 225 0.0 0.0 0.00 0.00 0.00 74 1012.8
20260504185709 16 170 1.6 3.2 0.00 0.00 0.00 76 1012.6
20260504185206 16 222 0.0 0.0 0.00 0.00 0.00 75 1012.6
20260504184702 16 182 0.0 1.6 0.00 0.00 0.00 77 1012.6
20260504184157 15 214 3.2 4.8 0.00 0.00 0.00 78 1012.7
20260504183654 15 219 3.2 3.2 0.00 0.00 0.00 79 1012.7
20260504183151 15 238 1.6 1.6 0.00 0.00 0.00 77 1012.8
20260504182649 15 202 0.0 1.6 0.00 0.00 0.00 79 1012.8
20260504182146 15 232 0.0 0.0 0.00 0.00 0.00 79 1012.8
20260504181644 15 227 1.6 3.2 0.00 0.00 0.00 79 1012.8
20260504181141 15 215 0.0 0.0 0.00 0.00 0.00 79 1012.6
20260504180640 15 224 1.6 1.6 0.00 0.00 0.00 78 1012.8
20260504180138 15 277 4.8 4.8 0.00 0.00 0.00 79 1012.7
20260504175635 15 242 0.0 1.6 0.00 0.00 0.00 79 1012.7
20260504175131 15 195 1.6 1.6 0.00 0.00 0.00 79 1012.5
20260504174630 15 235 1.6 1.6 0.00 0.00 0.00 80 1012.5
20260504174126 15 238 1.6 1.6 0.00 0.00 0.00 80 1012.8
20260504173623 14 217 0.0 0.0 0.00 0.00 0.00 81 1012.5
20260504173121 14 228 3.2 8.0 0.00 0.00 0.00 82 1012.6
20260504172617 14 236 3.2 3.2 0.00 0.00 0.00 82 1012.7
20260504172114 13 231 1.6 3.2 0.00 0.00 0.00 82 1012.8
20260504171610 14 234 0.0 0.0 0.00 0.00 0.00 82 1012.4
20260504171108 14 251 3.2 3.2 0.00 0.00 0.00 82 1012.8
20260504170603 13 235 1.6 1.6 0.00 0.00 0.00 83 1012.7
20260504150947 12 220 0.0 1.6 0.00 0.00 0.00 89 1012.3
20260504150444 12 241 3.2 3.2 0.00 0.00 0.00 90 1012.1
20260504140910 11 230 0.0 0.0 0.00 0.00 0.00 92 1011.6
20260504140406 11 226 0.0 0.0 0.00 0.00 0.00 93 1011.8
20260504130331 11 220 0.0 0.0 0.00 0.00 0.00 95 1010.6